Temp
13 13 13 12 12 12 11 11 11 11 11 10 10 10 10 9 9 9 9 8 8 8 8 8 7 7 7 7 7 6 6 6 6 6 6 6 6 6 6 6 7 7 7
13 13 13 12 12 12 12 11 11 11 10 10 10 10 9 9 9 9 9 8 8 8 8 7 7 7 7 7 6 6 6 6 6 6 6 6 6 6 6 6 6 6 6
13 13 13 12 12 12 12 11 11 11 10 10 10 10 9 9 9 9 9 8 8 8 8 7 7 7 6 6 6 6 6 6 6 6 6 6 6 5 5 6 6 6 6
13 13 12 12 12 12 12 11 11 11 10 10 10 10 9 9 9 9 8 8 8 8 8 7 7 7 6 6 6 6 6 6 6 6 5 6 6 5 5 5 6 6 6
13 13 12 12 12 12 12 11 11 11 10 10 10 10 9 9 9 9 8 8 8 8 7 7 7 7 6 6 6 6 6 6 6 5 6 6 6 6 5 5 5 5 5
13 12 12 12 12 12 12 11 11 11 10 10 10 9 9 9 9 9 8 8 8 8 7 7 6 6 6 6 5 5 5 6 6 5 5 6 6 6 6 5 5 5 5
12 12 12 12 12 12 11 11 11 11 10 10 10 9 9 9 9 8 8 8 8 7 7 7 6 6 6 5 5 5 5 5 5 5 5 5 5 5 5 5 5 5 5
12 12 12 12 12 11 11 11 11 11 10 10 10 10 9 9 9 8 8 8 8 7 7 6 6 6 5 5 4 4 4 4 5 5 5 5 5 4 5 4 4 4 5
13 12 12 12 11 11 11 11 10 10 10 9 9 9 9 9 8 8 8 8 7 7 7 6 6 6 5 5 4 4 3 4 4 5 5 5 5 5 5 5 4 4 4
12 12 12 12 11 11 11 10 10 10 9 9 9 9 8 8 8 8 8 7 7 7 7 7 6 6 5 5 4 3 3 3 4 4 5 5 5 4 4 4 4 4 4
13 12 12 11 11 10 10 10 10 9 9 8 8 8 8 8 8 7 7 7 7 7 7 6 6 5 3 4 4 4 3 3 4 4 4 4 4 4 4 2 3 3 3
13 12 11 11 11 10 10 10 9 9 8 8 8 8 8 8 7 7 7 7 6 5 5 5 4 3 3 2 3 4 4 4 4 4 4 4 4 4 4 3 3 2 3
13 12 11 11 10 10 10 9 9 9 8 8 8 7 8 7 7 6 6 5 5 5 5 4 3 4 3 3 2 3 3 4 3 3 3 4 4 4 4 3 3 2 3
13 12 11 10 9 9 9 9 9 8 8 8 8 8 7 7 6 6 6 6 6 5 3 3 4 4 3 3 3 2 2 3 4 4 4 4 4 4 4 4 4 3 3
11 10 9 9 8 9 9 9 8 8 8 8 7 8 7 6 6 6 6 6 5 5 5 4 6 4 3 3 3 3 3 3 4 4 4 4 4 4 4 4 4 4 3
11 10 9 9 8 9 9 9 9 9 8 8 7 7 7 7 7 6 6 6 6 5 5 4 5 5 3 3 3 3 3 3 3 3 4 4 4 5 4 4 3 3 3
10 9 9 8 9 9 9 9 9 9 9 8 8 8 7 7 6 6 5 5 5 5 5 5 5 5 3 2 2 2 3 3 3 4 4 3 4 4 4 3 3 2 2
10 9 9 8 9 8 9 9 9 9 9 8 8 8 7 6 6 6 5 5 5 6 6 6 5 5 3 2 2 2 3 3 4 4 3 3 3 3 3 4 2 2 1
9 9 8 8 8 8 8 9 9 9 9 8 8 7 6 6 6 6 5 5 5 5 5 5 5 4 2 2 2 2 2 2 3 3 3 3 3 3 3 2 2 1 1
10 9 9 8 8 8 8 9 9 9 9 8 7 7 6 6 6 5 5 5 5 5 4 4 3 2 2 2 2 2 2 2 2 2 2 2 2 2 2 2 1 1 1
10 9 9 9 8 8 8 8 8 8 8 8 7 7 6 6 5 5 5 5 5 5 4 3 3 1 1 1 0 1 1 1 1 1 1 1 1 1 1 0 -0 -0 -0
10 9 8 8 8 8 8 8 8 8 8 8 7 6 6 5 5 5 4 5 5 4 4 3 2 2 2 2 1 1 0 -0 0 1 1 1 1 1 1 -0 -0 -1 -1
10 9 9 8 8 8 8 8 8 8 8 7 7 6 5 5 5 4 4 4 4 4 3 3 2 2 1 0 0 0 0 1 1 1 1 1 1 1 0 -1 -1 -2 -1
10 9 9 8 8 8 8 8 8 8 7 7 6 5 5 4 4 4 4 4 3 3 3 3 2 2 1 1 1 1 0 0 0 0 0 0 -0 0 -0 -1 -1 -2 -2
9 9 9 8 8 8 8 8 8 8 7 7 5 5 4 4 4 4 3 3 3 3 3 3 2 2 2 1 1 0 0 0 0 0 0 0 -1 -2 -4 -1 -2 -4 -3
9 9 9 8 8 8 8 8 8 7 6 5 4 4 4 4 4 3 3 3 2 2 2 2 2 1 1 1 0 -0 -0 -0 -0 -0 -0 -0 -0 -1 -2 -3 -2 -3 -4
Height
3198 3199 3201 3201 3201 3201 3201 3200 3200 3199 3198 3198 3197 3196 3195 3194 3194 3193 3192 3191 3190 3188 3187 3186 3185 3183 3182 3181 3180 3179 3179 3178 3178 3177 3177 3177 3177 3177 3176 3175 3175 3174 3173
3198 3199 3200 3201 3202 3202 3201 3200 3199 3199 3199 3198 3197 3196 3196 3195 3194 3194 3193 3192 3190 3189 3188 3187 3186 3185 3184 3182 3181 3180 3180 3179 3178 3178 3178 3178 3178 3178 3178 3177 3176 3175 3175
3198 3199 3200 3200 3201 3201 3200 3200 3199 3199 3199 3198 3197 3197 3196 3195 3195 3194 3194 3193 3192 3191 3190 3189 3188 3187 3185 3184 3183 3182 3181 3180 3180 3179 3179 3179 3178 3178 3178 3178 3178 3177 3176
3198 3199 3199 3200 3200 3199 3199 3199 3199 3198 3198 3197 3197 3196 3196 3195 3194 3194 3194 3193 3193 3192 3192 3191 3190 3189 3187 3186 3185 3183 3182 3182 3181 3180 3180 3180 3179 3178 3178 3178 3178 3178 3177
3198 3198 3199 3198 3199 3199 3198 3198 3198 3198 3198 3197 3196 3195 3195 3195 3194 3194 3194 3194 3194 3193 3192 3192 3191 3190 3189 3187 3186 3184 3183 3183 3182 3180 3179 3180 3180 3178 3178 3178 3177 3178 3178
3197 3198 3198 3198 3198 3198 3198 3197 3197 3197 3197 3196 3195 3194 3194 3194 3195 3195 3194 3194 3193 3193 3192 3192 3191 3190 3189 3187 3186 3184 3183 3183 3181 3181 3181 3181 3181 3180 3178 3178 3178 3178 3178
3196 3196 3197 3197 3197 3196 3196 3196 3196 3196 3195 3194 3194 3194 3193 3194 3194 3194 3193 3192 3192 3192 3191 3190 3189 3188 3188 3187 3185 3184 3184 3183 3181 3180 3180 3181 3179 3179 3179 3179 3178 3178 3179
3195 3195 3195 3196 3196 3196 3195 3194 3194 3194 3193 3193 3193 3193 3193 3193 3193 3193 3192 3191 3190 3190 3189 3188 3187 3185 3184 3185 3185 3183 3182 3182 3180 3179 3180 3179 3178 3177 3177 3179 3179 3178 3178
3193 3193 3193 3194 3193 3194 3194 3193 3192 3192 3192 3192 3192 3192 3192 3191 3191 3190 3190 3189 3189 3188 3187 3186 3184 3183 3181 3180 3181 3181 3179 3179 3179 3178 3178 3177 3176 3177 3176 3176 3177 3175 3176
3191 3190 3191 3191 3191 3191 3191 3190 3190 3190 3190 3190 3190 3191 3190 3189 3189 3188 3187 3186 3185 3184 3184 3183 3182 3179 3179 3177 3176 3176 3177 3177 3176 3176 3177 3175 3174 3175 3176 3174 3173 3173 3173
3188 3187 3187 3188 3187 3188 3188 3187 3187 3187 3187 3187 3188 3188 3188 3187 3186 3185 3184 3184 3183 3183 3183 3183 3181 3179 3176 3175 3175 3172 3172 3174 3175 3175 3174 3173 3173 3172 3170 3165 3167 3168 3170
3184 3183 3183 3184 3183 3184 3184 3183 3184 3184 3184 3185 3185 3185 3185 3185 3184 3183 3183 3182 3181 3181 3179 3178 3176 3173 3169 3168 3168 3168 3168 3171 3170 3171 3171 3171 3170 3168 3167 3159 3162 3163 3166
3182 3181 3180 3182 3181 3180 3181 3181 3181 3181 3182 3182 3182 3182 3182 3182 3182 3182 3180 3178 3177 3177 3175 3172 3168 3166 3163 3156 3150 3159 3163 3168 3166 3166 3166 3167 3166 3166 3164 3161 3158 3158 3162
3177 3177 3177 3177 3177 3177 3177 3177 3177 3178 3179 3179 3180 3180 3179 3179 3179 3178 3176 3175 3174 3172 3170 3166 3163 3160 3155 3151 3147 3151 3158 3163 3164 3162 3162 3163 3163 3162 3161 3160 3154 3147 3156
3173 3174 3174 3174 3173 3174 3173 3174 3175 3175 3176 3177 3177 3177 3176 3175 3175 3175 3173 3172 3170 3168 3167 3161 3156 3152 3151 3150 3150 3151 3151 3155 3159 3159 3158 3158 3159 3159 3158 3158 3153 3149 3155
3169 3171 3171 3170 3170 3171 3172 3172 3172 3173 3174 3174 3175 3174 3172 3172 3172 3172 3171 3169 3168 3164 3161 3157 3153 3151 3149 3149 3149 3152 3152 3154 3156 3154 3154 3154 3155 3154 3154 3154 3155 3155 3155
3165 3167 3167 3167 3167 3168 3169 3170 3171 3171 3171 3171 3170 3170 3169 3169 3169 3168 3167 3166 3163 3161 3158 3155 3151 3149 3149 3149 3150 3152 3152 3153 3154 3153 3152 3149 3151 3150 3149 3150 3151 3152 3152
3160 3162 3164 3163 3164 3165 3166 3166 3167 3167 3168 3168 3168 3167 3166 3165 3165 3165 3163 3162 3160 3158 3156 3154 3151 3149 3147 3148 3150 3151 3151 3152 3151 3150 3150 3146 3147 3149 3149 3148 3148 3148 3147
3155 3157 3159 3160 3161 3161 3161 3161 3161 3161 3162 3162 3162 3162 3162 3162 3162 3162 3160 3159 3157 3153 3152 3152 3150 3147 3146 3148 3150 3150 3150 3150 3149 3148 3146 3146 3146 3145 3146 3147 3145 3144 3144
3151 3152 3154 3156 3158 3159 3159 3159 3159 3159 3159 3159 3160 3160 3159 3159 3159 3158 3157 3156 3153 3150 3149 3149 3148 3147 3147 3147 3147 3146 3146 3146 3145 3144 3143 3142 3142 3142 3141 3142 3142 3140 3140
3147 3148 3150 3152 3155 3156 3156 3157 3157 3157 3157 3157 3157 3157 3157 3157 3156 3155 3153 3151 3149 3146 3145 3144 3144 3143 3144 3143 3143 3142 3140 3139 3138 3138 3138 3137 3136 3136 3135 3135 3135 3134 3134
3145 3144 3145 3147 3150 3152 3153 3154 3154 3153 3154 3154 3154 3154 3154 3153 3151 3150 3149 3148 3146 3144 3141 3140 3140 3139 3139 3138 3137 3135 3134 3135 3134 3133 3132 3131 3131 3130 3130 3127 3126 3127 3126
3140 3140 3141 3143 3145 3147 3148 3149 3148 3149 3150 3150 3150 3149 3149 3148 3148 3147 3146 3146 3144 3142 3140 3139 3138 3138 3136 3135 3134 3134 3132 3130 3129 3128 3127 3126 3126 3124 3122 3121 3122 3121 3121
3135 3136 3138 3139 3140 3142 3143 3143 3144 3144 3145 3145 3145 3145 3145 3145 3145 3144 3143 3142 3141 3139 3138 3136 3134 3133 3132 3130 3130 3128 3126 3124 3121 3119 3117 3118 3117 3116 3115 3114 3115 3115 3115
3131 3131 3132 3134 3136 3138 3139 3139 3139 3140 3140 3140 3141 3141 3141 3141 3141 3141 3140 3138 3137 3135 3134 3133 3131 3129 3127 3126 3125 3123 3121 3119 3116 3114 3111 3110 3108 3108 3109 3108 3106 3107 3106
3127 3128 3129 3130 3132 3134 3135 3136 3136 3136 3137 3137 3137 3137 3138 3138 3138 3137 3136 3135 3134 3132 3131 3129 3127 3125 3123 3121 3119 3117 3115 3113 3111 3109 3106 3104 3103 3102 3101 3101 3099 3098 3098
Wind_Speed
3 7 4 2 2 3 1 0 0 1 2 3 3 4 4 4 5 6 7 7 7 8 9 9 9 9 9 9 8 8 8 7 6 6 7 7 6 5 5 5 5 6 6
5 4 4 2 0 2 1 1 1 1 2 2 3 3 3 3 3 3 4 4 5 7 8 8 8 8 8 8 7 6 5 4 4 4 4 5 6 7 5 4 6 7 6
6 5 3 1 1 2 3 3 3 2 2 3 2 2 2 1 1 1 1 2 3 5 6 7 7 7 7 6 6 5 4 5 5 3 1 2 6 6 6 4 5 6 5
7 5 2 2 3 4 3 4 3 3 3 4 4 3 3 2 1 1 1 2 3 4 4 5 5 5 5 4 4 3 3 3 4 2 1 0 4 6 5 4 4 4 3
3 2 2 3 4 4 4 5 5 5 5 5 5 6 5 4 3 3 3 3 4 4 4 4 3 4 4 4 3 4 4 3 4 5 2 1 0 4 4 3 3 3 2
3 1 2 3 4 5 5 6 6 7 7 8 8 8 7 6 5 5 5 5 5 6 6 5 3 2 3 5 5 5 5 4 3 2 3 2 5 3 2 2 1 1 2
1 3 4 4 6 8 9 9 8 8 9 10 9 9 9 7 7 7 7 7 7 8 8 7 6 4 4 4 7 7 7 6 7 4 2 1 4 2 2 1 1 1 2
6 8 8 8 10 10 10 11 10 10 11 11 10 11 10 9 8 8 9 9 9 10 10 11 9 8 7 6 7 9 9 8 11 9 6 8 9 7 4 4 3 3 4
8 10 11 13 14 13 12 13 11 11 12 12 11 11 11 10 9 10 11 11 12 13 14 15 14 14 12 11 10 10 13 12 15 14 11 12 9 9 9 9 8 6 6
11 12 13 14 17 16 14 15 13 12 11 11 10 10 11 10 11 11 12 13 14 15 17 20 22 18 20 17 14 13 15 17 17 19 14 12 14 10 13 12 12 10 9
14 15 15 14 16 17 17 17 15 12 11 10 10 10 10 11 12 13 15 15 18 18 21 23 26 29 34 24 21 19 18 20 19 21 17 15 15 17 25 32 15 14 12
11 13 9 10 16 17 18 18 16 13 12 11 11 11 12 12 14 15 16 18 18 16 16 26 28 32 29 37 24 24 18 19 20 19 19 17 19 20 20 17 18 21 15
12 14 11 7 13 13 16 18 17 15 13 12 12 10 11 11 11 12 12 15 17 18 22 25 24 31 35 41 30 21 16 20 18 16 15 14 18 17 15 17 8 16 16
16 17 15 14 17 15 17 16 18 17 15 14 11 9 9 9 8 10 12 15 17 19 22 24 27 27 33 33 11 10 11 15 20 19 19 15 14 15 14 15 23 21 16
16 15 14 16 17 19 17 15 16 17 16 13 7 8 8 9 10 12 14 18 18 23 27 24 31 35 29 17 13 22 11 20 17 15 15 14 16 16 13 13 16 13 16
21 16 17 16 19 21 15 11 13 14 12 8 8 8 10 12 13 14 15 17 22 26 27 23 29 27 14 7 6 14 10 14 17 11 13 14 16 17 19 21 20 18 19
22 20 16 18 25 22 14 9 9 8 7 6 8 11 13 14 15 16 17 18 22 23 22 24 19 18 11 4 9 12 12 15 14 9 9 7 15 17 10 14 18 18 22
23 24 20 23 22 15 9 9 9 8 7 8 10 13 14 16 16 16 17 20 22 19 19 17 13 9 3 3 6 10 13 14 13 10 10 5 8 14 20 18 15 18 21
24 25 25 24 21 13 13 13 11 12 11 12 14 15 15 16 17 18 19 20 18 21 20 13 10 6 4 6 8 12 14 15 13 15 16 19 21 17 24 26 23 25 24
26 26 25 24 18 14 15 14 13 14 14 16 17 16 16 18 18 17 17 18 20 20 17 10 5 4 7 12 18 20 18 16 17 19 21 21 24 25 25 29 29 19 21
27 25 25 22 18 16 17 17 16 17 19 19 19 18 18 18 17 17 17 19 19 17 16 10 10 6 7 14 14 17 19 23 25 26 27 26 28 30 31 34 30 38 31
23 20 22 22 20 19 20 21 21 22 22 22 21 20 18 17 17 16 17 18 17 15 12 11 8 7 9 12 14 17 17 21 23 27 31 33 29 24 23 21 24 27 31
19 19 20 22 22 23 24 24 25 24 23 22 21 19 17 18 17 17 17 15 12 11 12 13 12 13 13 14 16 18 21 21 20 19 20 23 25 26 24 23 18 23 24
18 20 21 21 20 20 21 21 22 21 20 20 20 18 17 18 16 15 13 14 12 12 14 16 18 18 19 21 22 23 23 25 26 29 29 28 25 25 27 29 26 27 28
19 19 21 21 20 21 21 21 21 19 19 18 17 18 17 16 15 14 14 14 15 16 18 19 21 23 24 24 21 22 23 24 24 27 30 29 29 29 23 30 32 29 33
20 19 19 19 18 19 19 19 18 16 16 16 16 17 16 15 15 15 16 18 18 19 20 21 21 23 25 25 25 22 21 22 23 25 27 28 29 30 30 27 30 32 34
Wind_Direction
148 145 161 145 90 34 16 8 234 188 161 133 121 117 112 104 90 83 75 67 61 62 62 64 64 60 55 55 60 62 59 53 53 58 68 72 69 52 70 73 85 82 86
104 139 157 172 327 336 312 263 227 220 218 184 160 145 131 115 98 81 71 67 63 57 57 56 60 60 58 53 54 56 60 66 59 64 76 95 90 80 61 68 94 87 80
96 132 144 182 278 283 307 291 292 264 245 236 214 191 176 150 121 72 42 35 37 46 49 50 47 51 54 52 44 38 31 35 28 24 18 116 109 91 80 70 76 81 88
105 111 140 225 254 255 272 274 270 275 262 257 252 244 240 237 255 304 325 344 359 8 18 33 34 35 36 30 33 21 15 28 18 9 196 216 126 105 85 82 76 82 88
121 129 169 224 252 265 289 296 294 285 284 278 274 263 259 258 266 287 306 323 331 334 338 346 4 10 356 345 354 334 330 13 39 108 197 358 250 118 102 83 88 78 63
127 128 196 231 252 265 280 295 303 301 298 288 277 273 266 266 283 291 294 305 311 311 310 310 319 325 321 316 318 303 307 327 303 149 213 297 307 315 87 102 76 111 149
311 258 251 253 270 272 276 280 290 299 299 290 284 286 282 288 292 294 293 289 294 295 293 290 286 282 279 285 291 293 294 292 290 285 257 248 304 274 316 295 198 240 247
281 260 257 262 269 271 284 285 288 294 292 291 294 295 297 299 297 293 289 287 283 281 280 278 273 266 259 257 269 277 276 271 273 269 270 270 280 251 260 290 259 256 252
275 268 261 263 265 270 277 283 284 292 294 296 303 310 310 306 301 295 290 290 284 279 278 276 271 267 255 247 242 248 259 262 266 266 267 277 281 242 249 258 248 225 247
281 274 269 269 268 268 272 274 276 284 296 305 307 312 312 307 300 295 295 290 283 278 280 276 274 267 262 248 243 244 248 253 253 268 269 264 267 255 267 243 253 241 234
275 265 258 260 267 271 269 270 271 280 290 302 308 307 305 303 299 295 291 295 296 296 306 296 290 280 270 264 254 249 251 257 260 264 268 266 273 264 267 247 224 244 242
275 270 272 279 273 271 270 269 268 273 280 294 301 303 299 307 306 305 311 316 318 306 300 313 304 305 290 255 255 250 252 260 260 260 257 260 264 264 291 312 244 229 239
293 292 288 287 295 297 274 270 264 265 273 285 293 292 307 318 321 327 319 307 308 316 303 323 311 309 289 286 244 227 252 265 262 255 264 261 267 276 278 296 258 237 232
298 303 302 304 299 307 298 264 258 262 269 279 290 309 309 311 311 306 304 314 324 315 318 318 320 302 297 324 222 210 251 262 264 266 267 272 274 280 275 279 271 222 240
280 290 288 286 290 302 302 263 255 265 273 284 289 298 296 296 306 314 322 323 320 323 325 322 324 323 314 310 256 204 232 254 250 278 290 286 279 272 269 263 265 289 272
277 268 273 278 282 294 307 280 265 271 275 289 264 289 303 303 313 320 319 321 324 322 320 318 320 325 315 303 254 218 261 277 276 269 274 295 297 281 255 257 265 268 266
265 260 262 270 281 296 296 280 266 270 274 282 283 288 289 296 312 315 318 322 323 317 320 323 321 312 297 290 222 243 278 283 271 267 285 318 317 310 269 246 249 259 261
275 259 258 267 285 298 271 276 277 276 269 274 279 280 295 305 311 311 312 318 314 311 314 318 301 308 315 258 260 252 266 269 273 271 279 314 318 328 310 282 261 266 255
290 267 261 267 279 285 288 286 284 286 293 288 285 287 291 297 300 303 309 309 303 304 305 303 299 311 307 288 279 281 283 279 268 283 288 293 301 295 293 305 288 273 270
278 265 262 265 273 274 271 271 275 280 280 276 275 279 282 288 293 296 296 298 301 303 308 302 303 305 299 297 290 287 279 277 278 284 294 297 293 294 286 286 287 287 270
264 257 257 262 264 260 259 261 265 265 265 267 268 268 271 280 286 287 288 290 293 299 303 305 317 287 270 277 277 278 273 271 276 279 281 283 291 293 290 281 282 280 274
262 251 245 250 253 252 254 256 261 262 264 268 264 263 268 274 276 275 278 283 289 301 305 309 299 278 279 289 289 288 288 282 280 280 279 282 290 286 291 289 274 277 284
261 249 242 242 246 251 254 259 261 263 265 264 260 260 263 264 264 270 275 276 284 299 309 312 305 295 295 293 292 292 294 299 299 292 290 292 292 291 289 285 274 275 262
263 245 237 234 237 244 248 251 256 258 258 253 251 255 257 255 260 270 273 275 282 295 300 302 303 305 304 303 304 299 294 294 297 299 301 298 288 289 289 287 286 276 274
257 244 236 233 234 238 244 249 255 256 253 254 252 252 250 253 261 264 266 268 275 281 286 293 295 297 301 298 298 299 298 298 297 297 298 301 299 294 277 283 282 280 281
246 237 229 229 229 235 245 249 250 250 248 248 248 247 252 260 265 264 269 273 275 278 284 284 282 284 290 292 296 295 299 299 301 303 301 299 296 297 294 287 281 277 282